Notices

What's New in latest Release from April 7th, 2021:

- Updated Glossary, including Speed of Maximum Gust, and Total Hourly Precipitation

- Updated national and regional climate services offices contacts and prices information

- Addition of station inventory lists for 1981-2010, 1971-2000, and 1961-1990 Normals.

If you haven't already, please take our survey and provide feedback about our website: https://eccc.sondage-survey.ca/f/LanguageSelection.aspx?s=442ca660-fcf1-47c0-95a9-59707d6fd709

Hourly Data Report for February 10, 2012

HALIFAX STANFIELD INT'L A
NOVA SCOTIA

44°52'48.060" N
63°30'00.050" W
145.40 m
8202250
71395
YHZ

Download Data

Hourly Data (February 2012)
Hourly Data Report for February 10, 2012
TIME
LST
Temp Definition
°C
Dew Point Definition
°C
Rel Hum Definition
%
Precip. Amount Definition
mm

Wind Dir Definition
10's deg

Wind Spd Definition
km/h
Visibility Definition
km
Stn Press Definition
kPa
Hmdx Definition


Wind Chill Definition


Weather Definition


00:00 -3.0 -5.9 80   32 19 24.1 99.44   -9 Mainly Clear
01:00 -2.9 -7.4 71   31 22 24.1 99.53   -9 Mainly Clear
02:00 -3.4 -8.1 70   32 24 24.1 99.60   -10 Clear
03:00 -4.3 -8.7 71   30 13 24.1 99.68   -9 Clear
04:00 -5.0 -8.4 77   30 17 24.1 99.77   -11 Clear
05:00 -5.3 -8.8 76   31 15 24.1 99.84   -11 Clear
06:00 -7.5 -9.6 85   30 6 24.1 99.95   -11 Clear
07:00 -7.8 -9.5 88   28 6 24.1 100.02   -11 Clear
08:00 -6.8 -9.0 84   29 6 24.1 100.10   -10 Clear
09:00 -3.8 -8.4 70   25 7 24.1 100.15   -7 Clear
10:00 -1.9 -9.2 57   26 6 24.1 100.24   -4 Clear
11:00 0.8 -7.9 52   22 6 24.1 100.27     Clear
12:00 1.4 -8.6 47   20 13 24.1 100.23     Clear
13:00 2.5 -7.8 47   19 13 24.1 100.15     Clear
14:00 2.6 -7.9 46   22 11 24.1 100.08     Clear
15:00 3.5 -8.0 43   21 17 24.1 100.07     Mainly Clear
16:00 2.5 -7.1 49   19 15 24.1 100.06     Mainly Clear
17:00 0.6 -6.7 58   21 20 24.1 100.07     Mainly Clear
18:00 -1.5 -6.2 70   17 11 24.1 100.08   -5 Mainly Clear
19:00 -1.9 -5.1 79   16 13 24.1 100.07   -6 Mainly Clear
20:00 -2.5 -4.4 87   16 15 24.1 100.09   -7 Mainly Clear
21:00 -1.8 -2.9 92   15 13 24.1 100.02   -6 Mainly Clear
22:00 -0.7 -1.6 94   17 24 24.1 99.96   -7 Mostly Cloudy
23:00 0.3 -0.7 93   17 19 24.1 99.93     Mostly Cloudy

Notes on Data Quality.

Legend

  • E = Estimated
  • M = Missing
  • NA = Not Available*
  • [empty] = Indicates an unobserved value
Date modified: